Morrisville, VT

5:18 AM EDT on October 15, 2019 (GMT -0400)
Morrisville Stowe State

Weather History for KMVL - August, 2019

Change the Weather History Date:

Friday, August 30, 2019

  Actual Average Record
Temperature  
Mean Temperature 62 °F 63 °F  
Max Temperature 77 °F 75 °F 86 °F (2010)
Min Temperature 48 °F 51 °F 42 °F (2003)
Degree Days  
Heating Degree Days 2 3  
Month to date heating degree days 48 62  
Since 1 June heating degree days 201 215  
Since 1 July heating degree days 58 92  
Cooling Degree Days 0 2  
Month to date cooling degree days 61 76  
Year to date cooling degree days 243 244  
Since 1 June cooling degree days 242 236  
Growing Degree Days 12 (Base 50)    
Moisture  
Dew Point 53 °F    
Average Humidity 73    
Maximum Humidity 100    
Minimum Humidity 40    
Precipitation  
Precipitation T in 0.11 in 0.20 in (2004)
Month to date precipitation 3.79 3.93  
Year to date precipitation 27.23 23.66  
Sea Level Pressure  
Sea Level Pressure 29.94 in    
Wind  
Wind Speed 5 mph ()    
Max Wind Speed 15 mph    
Max Gust Speed 23 mph    
Visibility 9.9 miles    
Events      
T = Trace of Precipitation, MM = Missing Value Source: Averaged Metar Reports

Daily Weather History Graph

Daily Weather History Graph

Search for Another Location

Airport or City:

Astronomy

Aug. 30, 2019 Rise Set
Actual Time 6:10 AM EDT 7:30 PM EDT
Civil Twilight 5:40 AM EDT 8:01 PM EDT
Nautical Twilight 5:03 AM EDT 8:37 PM EDT
Astronomical Twilight 4:24 AM EDT 9:15 PM EDT
Moon 6:05 AM EDT (8/30) 8:06 PM EDT (8/30)
Length of Visible Light 14h 20m
Length of Day
13h 20m
New Moon, 0% of the Moon is Illuminated
Aug 30
New Moon
Sep 5
First Quarter
Sep 14
Full
Sep 21
Last Quarter
Sep 28
New

Hourly Weather History & Observations

Time (EDT) Temp. Dew Point Humidity Pressure Visibility Wind Dir Wind Speed Gust Speed Precip Events Conditions
12:54 AM 53.1 °F 52.0 °F 96% 29.94 in 10.0 mi SSW 3.5 mph - N/A   Clear
1:54 AM 52.0 °F 51.1 °F 97% 29.93 in 9.0 mi SSW 3.5 mph - N/A   Clear
2:54 AM 52.0 °F 51.1 °F 97% 29.91 in 8.0 mi SSW 4.6 mph - N/A   Clear
3:54 AM 51.1 °F 50.0 °F 96% 29.90 in 10.0 mi South 5.8 mph - N/A   Clear
4:54 AM 51.1 °F 50.0 °F 96% 29.90 in 10.0 mi South 4.6 mph - N/A   Clear
5:54 AM 48.9 °F 48.0 °F 97% 29.91 in 10.0 mi Calm Calm - N/A   Clear
6:54 AM 51.1 °F 48.9 °F 92% 29.90 in 10.0 mi SSW 4.6 mph - N/A   Clear
7:54 AM 55.9 °F 54.0 °F 93% 29.88 in 10.0 mi South 3.5 mph - N/A   Clear
8:54 AM 64.9 °F 55.9 °F 73% 29.87 in 10.0 mi SSE 4.6 mph - N/A   Partly Cloudy
9:54 AM 70.0 °F 55.9 °F 61% 29.88 in 10.0 mi SSW 10.4 mph 18.4 mph N/A   Mostly Cloudy
10:54 AM 69.1 °F 57.9 °F 68% 29.88 in 10.0 mi SSW 8.1 mph - 0.00 in   Partly Cloudy
11:54 AM 71.1 °F 59.0 °F 66% 29.89 in 10.0 mi SSW 9.2 mph - N/A   Mostly Cloudy
12:54 PM 73.9 °F 60.1 °F 62% 29.90 in 10.0 mi SW 5.8 mph - N/A   Mostly Cloudy
1:54 PM 75.0 °F 55.9 °F 51% 29.91 in 10.0 mi Variable 6.9 mph 19.6 mph N/A   Partly Cloudy
2:54 PM 77.0 °F 55.0 °F 47% 29.91 in 10.0 mi Variable 5.8 mph 19.6 mph N/A   Partly Cloudy
3:54 PM 75.9 °F 54.0 °F 46% 29.91 in 10.0 mi SW 8.1 mph - N/A   Partly Cloudy
4:54 PM 77.0 °F 51.1 °F 40% 29.92 in 10.0 mi NW 8.1 mph - N/A   Clear
5:54 PM 75.0 °F 50.0 °F 41% 29.95 in 10.0 mi NW 11.5 mph - N/A   Scattered Clouds
6:54 PM 70.0 °F 52.0 °F 53% 29.98 in 10.0 mi NW 5.8 mph - N/A   Partly Cloudy
7:54 PM 66.9 °F 50.0 °F 54% 30.00 in 10.0 mi NW 5.8 mph - N/A   Partly Cloudy
8:54 PM 64.9 °F 50.0 °F 58% 30.03 in 10.0 mi Calm Calm - N/A   Clear
9:54 PM 57.0 °F 52.0 °F 83% 30.05 in 10.0 mi SSW 4.6 mph - N/A   Clear
10:54 PM 55.9 °F 52.0 °F 87% 30.07 in 10.0 mi Variable 4.6 mph - N/A   Clear
11:54 PM 55.0 °F 51.1 °F 86% 30.08 in 10.0 mi SSW 6.9 mph - N/A   Clear